Location: Unspecified
(0.0000°N, 0.0000°E)
Time: 22:42:18
(UTC+00:00)

S-56A Canister/Altair - All Passes

Search period start: 01 October 2020 00:00
Search period end: 11 October 2020 00:00
Orbit: 632 x 2500 km, 38.9° (Epoch: 01 October)

Date Brightness Start Highest point End Pass type
(mag) Time Alt. Az. Time Alt. Az. Time Alt. Az.
01 Oct - 07:21:49 10° SE 07:23:05 10° SE 07:24:25 10° SE daylight
01 Oct - 09:18:45 10° SSW 09:27:57 56° SE 09:41:10 10° ENE daylight
01 Oct - 11:23:08 10° WSW 11:34:08 50° NW 11:48:20 10° NNE daylight
01 Oct - 13:34:38 10° WNW 13:42:53 17° NNW 13:51:36 10° N daylight
01 Oct - 20:09:20 10° NNW 20:16:27 22° NNE 20:21:50 10° ENE visible
01 Oct - 22:13:51 10° NW 22:21:48 78° SW 22:27:10 10° SE visible
02 Oct - 08:46:23 10° SSW 08:54:50 47° SE 09:07:00 10° ENE daylight
02 Oct - 10:50:04 10° WSW 11:00:35 56° NW 11:14:47 10° NE daylight
02 Oct - 13:00:10 10° WNW 13:08:59 20° NNW 13:18:38 10° NNE daylight
02 Oct - 19:36:06 10° NNW 19:43:15 20° NNE 19:48:47 10° ENE visible
02 Oct - 21:40:24 10° NW 21:49:05 85° NE 21:54:49 10° SE visible
02 Oct - 23:50:54 10° WSW 23:52:30 11° SW 23:53:59 10° SSW night (unlit)
03 Oct - 08:14:08 10° SSW 08:21:49 38° SE 08:32:44 10° ENE daylight
03 Oct - 10:17:09 10° WSW 10:27:07 63° NW 10:41:09 10° NE daylight
03 Oct - 12:26:01 10° WNW 12:35:09 22° NNW 12:45:31 10° NNE daylight
03 Oct - 19:02:51 10° NNW 19:09:56 19° NNE 19:15:35 10° ENE visible
03 Oct - 21:06:54 10° NW 21:16:17 71° NE 21:22:23 10° ESE visible
03 Oct - 23:15:55 10° W 23:19:51 16° SW 23:23:11 10° S night (unlit)
04 Oct - 07:42:03 10° SSW 07:48:53 31° SE 07:58:21 10° ENE daylight
04 Oct - 09:44:22 10° WSW 09:53:45 71° NW 10:07:28 10° NE daylight
04 Oct - 11:52:11 10° W 12:01:22 24° NNW 12:12:16 10° NNE daylight
04 Oct - 18:29:34 10° N 18:36:32 17° NNE 18:42:13 10° ENE visible
04 Oct - 20:33:25 10° NW 20:43:23 60° NE 20:49:53 10° ESE visible
04 Oct - 22:41:38 10° W 22:47:14 22° SW 22:51:35 10° S night (unlit)
05 Oct - 07:10:07 10° S 07:16:00 24° SE 07:23:50 10° E daylight
05 Oct - 09:11:42 10° SW 09:20:29 80° NW 09:33:43 10° NE daylight
05 Oct - 11:18:33 10° W 11:27:40 27° NNW 11:38:56 10° NNE daylight
05 Oct - 17:56:18 10° N 18:03:02 16° NNE 18:08:41 10° ENE visible
05 Oct - 19:59:54 10° NW 20:10:23 52° NE 20:17:18 10° ESE visible
05 Oct - 22:07:33 10° WNW 22:14:36 30° SW 22:19:44 10° SSE visible
06 Oct - 06:38:28 10° S 06:43:11 18° SE 06:49:06 10° E daylight
06 Oct - 08:39:08 10° SW 08:47:20 89° SE 08:59:55 10° NE daylight
06 Oct - 10:45:09 10° W 10:54:03 30° NNW 11:05:31 10° NNE daylight
06 Oct - 17:23:03 10° N 17:29:24 15° NNE 17:34:54 10° NE daylight
06 Oct - 19:26:22 10° NNW 19:37:17 46° NE 19:44:37 10° ESE visible
06 Oct - 21:33:34 10° WNW 21:41:56 39° SW 21:47:43 10° SSE visible
07 Oct - 06:07:19 10° SSE 06:10:22 13° SE 06:13:53 10° ESE daylight
07 Oct - 08:06:40 10° SW 08:14:18 77° SE 08:26:05 10° NE daylight
07 Oct - 10:11:55 10° W 10:20:31 33° NNW 10:32:03 10° NNE daylight
07 Oct - 12:26:51 10° NNW 12:30:03 11° NNW 12:33:22 10° N daylight
07 Oct - 16:49:54 10° N 16:55:41 13° NNE 17:00:52 10° NE daylight
07 Oct - 18:52:49 10° NNW 19:04:04 41° NE 19:11:50 10° ESE visible
07 Oct - 20:59:38 10° WNW 21:09:12 50° SW 21:15:34 10° SSE visible
08 Oct - 07:34:19 10° SW 07:41:22 64° SE 07:52:12 10° ENE daylight
08 Oct - 09:38:52 10° W 09:47:06 36° NNW 09:58:33 10° NNE daylight
08 Oct - 11:51:46 10° NW 11:56:06 12° NNW 12:00:46 10° N daylight
08 Oct - 16:16:53 10° N 16:21:51 12° NNE 16:26:27 10° NE daylight
08 Oct - 18:19:18 10° NNW 18:30:46 37° NE 18:38:56 10° E visible
08 Oct - 20:25:43 10° WNW 20:36:22 62° SW 20:43:20 10° SE visible
09 Oct - 07:02:03 10° SSW 07:08:32 52° SE 07:18:19 10° ENE daylight
09 Oct - 09:05:56 10° WSW 09:13:46 40° NW 09:25:01 10° NNE daylight
09 Oct - 11:17:15 10° NW 11:22:15 13° NNW 11:27:49 10° N daylight
09 Oct - 15:44:10 10° N 15:47:56 11° NNE 15:51:32 10° NE daylight
09 Oct - 17:45:47 10° NNW 17:57:21 33° NNE 18:05:54 10° E daylight
09 Oct - 19:51:51 10° NW 20:03:29 74° SW 20:10:59 10° SE visible
09 Oct - 22:04:32 10° WSW 22:07:22 12° SW 22:09:54 10° SSW visible
10 Oct - 06:29:53 10° SSW 06:35:47 41° SE 06:44:23 10° ENE daylight
10 Oct - 08:33:08 10° WSW 08:40:32 45° NW 08:51:29 10° NNE daylight
10 Oct - 10:43:08 10° NW 10:48:31 14° NNW 10:54:41 10° N daylight
10 Oct - 15:12:29 10° NNE 15:13:55 10° NNE 15:15:20 10° NNE daylight
10 Oct - 17:12:18 10° NNW 17:23:50 30° NNE 17:32:42 10° E daylight
10 Oct - 19:17:59 10° NW 19:30:27 86° SW 19:38:33 10° SE visible
10 Oct - 21:29:04 10° W 21:34:33 17° SW 21:39:00 10° S visible
